Wind_Speed
41 41 41 41 41 43 47 47 48 45 44 41 40 41 41 41 41 42 42 41 41 41 42 42 43 44 44 44 44 44 45 45 45 45 44 44 44 44 44 43 43 42 42 42
41 41 42 43 42 42 43 45 45 45 44 40 41 42 41 41 42 42 41 41 41 42 42 42 43 43 44 44 44 45 45 45 45 46 46 45 45 46 45 44 44 44 43 44
39 40 43 43 40 41 42 42 44 45 41 39 41 43 43 42 43 43 42 42 43 42 42 42 43 44 44 44 45 46 46 46 46 46 46 46 46 46 46 45 45 45 45 44
39 41 44 40 40 40 41 41 42 43 42 41 42 43 44 43 44 45 45 44 44 44 44 44 44 45 45 45 45 46 46 46 46 46 45 45 45 45 45 45 45 45 45 44
38 40 41 38 38 39 41 42 40 41 42 42 42 44 44 44 45 46 46 46 45 44 44 45 45 45 46 46 45 45 45 45 45 45 45 45 45 44 44 45 45 45 45 45
38 40 40 34 34 36 40 41 39 41 41 42 43 44 43 43 45 47 47 48 47 46 46 46 45 46 46 45 45 45 45 45 45 45 44 44 45 45 45 45 45 46 45 45
39 39 38 33 33 35 38 37 38 40 41 42 43 43 41 43 45 46 46 46 46 46 47 46 45 45 45 45 45 45 45 45 45 44 44 45 45 45 45 45 45 45 45 45
40 40 35 31 33 34 36 36 38 40 41 42 43 43 42 43 44 45 45 45 45 45 45 45 46 46 46 46 46 46 46 46 46 45 45 46 46 45 46 46 45 45 45 45
39 39 36 34 35 34 35 36 36 38 40 42 43 44 43 43 43 44 45 45 46 45 45 45 46 47 47 46 46 46 46 46 46 46 46 46 46 46 46 46 46 46 46 46
38 37 36 36 36 36 36 37 37 38 40 41 42 42 43 43 44 44 45 45 45 45 45 46 46 46 47 47 47 47 47 46 46 47 47 47 47 47 46 46 46 46 46 46
35 34 36 37 37 37 38 38 38 38 40 41 41 42 42 43 43 45 44 44 45 45 45 46 46 45 46 46 47 47 47 48 47 47 47 47 47 47 46 46 46 46 46 46
35 34 36 36 37 38 39 38 39 39 39 40 42 42 42 43 43 42 43 44 44 45 45 45 45 44 44 45 46 46 46 46 46 46 46 46 46 46 45 45 45 45 45 45
36 36 37 36 36 37 38 38 39 39 40 40 41 42 41 41 42 42 43 44 44 44 44 44 44 44 43 43 43 43 44 44 44 44 44 45 45 45 44 44 44 45 45 44
37 38 38 37 37 38 38 39 39 40 41 41 41 41 41 41 41 41 40 41 43 43 43 42 42 42 42 42 42 42 43 43 44 44 45 44 44 44 44 44 44 44 43 43
37 38 38 37 37 38 38 39 40 40 41 41 41 41 41 40 40 40 41 40 41 42 42 41 42 42 41 41 42 42 42 42 43 43 44 45 45 44 44 44 43 43 42 43
37 37 37 36 36 36 37 38 39 39 39 39 39 39 39 39 38 39 41 42 41 41 41 41 42 42 41 41 41 41 41 41 41 42 42 43 43 43 42 42 42 41 41 41
35 36 37 37 36 36 35 36 36 36 37 38 39 39 39 38 37 37 38 39 39 38 39 40 41 41 41 41 40 40 41 41 41 41 40 40 40 40 40 41 41 40 40 41
33 34 34 35 35 36 36 36 36 36 37 37 38 38 37 37 36 36 37 37 37 37 38 38 39 40 40 39 39 39 39 39 39 39 39 39 39 39 40 40 40 40 40 41
31 31 32 32 33 33 34 34 35 35 36 36 35 35 35 35 35 35 35 36 35 36 36 37 38 38 38 38 38 37 36 36 36 37 38 38 38 39 39 39 39 40 40 41
29 29 30 30 31 31 32 32 32 32 31 32 32 34 35 35 35 34 35 35 34 35 35 36 36 36 36 36 36 35 34 35 35 36 36 37 37 37 37 37 38 38 39 40
28 28 29 29 29 29 30 30 30 29 28 30 31 33 34 35 34 34 34 34 34 34 34 35 35 35 34 35 35 35 34 33 33 34 35 35 36 36 36 36 37 37 38 38
27 27 27 28 28 27 27 27 27 26 27 28 30 31 32 33 32 32 33 33 32 33 33 33 33 33 33 33 33 33 33 32 33 33 33 34 34 34 34 35 35 36 37 37
26 27 27 28 28 27 26 27 27 27 27 27 28 29 30 31 31 30 31 31 31 31 31 31 31 31 31 31 31 31 32 32 32 33 33 33 33 33 34 34 34 35 36 36
26 27 27 27 27 27 27 27 28 28 28 28 28 28 28 28 28 29 29 30 30 30 30 30 30 30 31 31 31 31 31 31 32 32 32 33 33 32 32 33 33 34 35 36
27 27 27 27 27 27 27 27 27 26 26 25 26 27 28 28 27 28 29 29 29 30 30 30 30 29 30 30 30 30 30 30 30 31 30 31 31 31 32 33 33 34 35 35
26 26 26 26 25 26 25 25 24 23 23 23 24 25 25 26 26 27 28 28 28 29 29 28 28 28 29 29 29 29 29 29 29 30 30 31 31 32 33 33 34 34 34 34
26 26 25 25 24 24 24 23 22 21 21 21 21 22 22 22 23 24 25 25 25 26 26 27 28 28 28 28 29 29 29 29 29 30 30 31 31 32 32 33 33 32 32 31
Wind_Direction
252 252 253 253 251 249 249 250 251 250 250 248 248 248 248 249 248 248 248 247 247 247 248 249 250 250 251 253 254 256 258 259 261 262 263 265 266 267 269 271 272 274 275 277
252 252 252 252 250 251 251 250 251 250 248 247 247 246 245 245 246 246 246 246 247 248 250 251 251 251 252 253 255 257 259 260 260 261 262 264 266 267 268 271 272 273 275 276
255 252 253 253 252 254 253 252 251 250 249 247 247 246 247 247 247 247 246 247 249 250 250 250 251 251 252 254 255 257 258 259 259 260 261 262 264 266 268 269 271 273 274 275
259 257 256 256 255 254 254 253 253 251 248 248 247 247 246 247 247 247 248 248 250 251 250 250 251 252 252 253 255 257 257 258 259 260 261 262 264 266 267 269 271 272 273 275
259 260 260 258 256 257 257 254 252 252 250 249 248 248 247 248 249 250 250 251 251 252 253 253 252 253 253 254 255 256 257 257 258 259 260 262 263 265 267 268 270 271 273 275
261 263 264 263 261 259 258 255 253 253 252 250 250 250 249 250 251 252 251 252 253 253 253 254 253 253 254 254 255 256 257 257 257 259 260 262 263 264 266 268 270 271 272 274
261 264 266 266 264 262 260 260 255 254 253 251 250 252 250 250 251 252 252 253 253 253 254 253 252 252 253 254 254 255 256 256 257 258 260 261 263 264 266 268 269 271 272 273
262 263 265 266 262 261 262 259 256 253 253 253 252 252 251 251 251 253 252 252 253 253 253 253 253 253 253 254 254 254 256 257 257 259 260 261 262 264 265 268 269 271 272 274
263 264 264 262 262 262 259 257 256 254 253 254 253 253 252 252 251 253 254 254 254 254 253 253 253 253 253 254 254 255 256 257 258 259 260 262 263 265 267 268 270 271 272 273
264 263 263 262 262 261 261 259 257 255 254 254 254 254 254 254 253 253 254 254 255 254 253 253 253 254 254 254 255 257 257 257 258 260 260 262 264 265 266 268 270 271 273 274
264 265 265 262 261 261 260 259 257 256 256 254 255 256 256 256 256 255 255 255 256 255 255 254 254 256 256 256 257 257 257 258 259 259 261 262 263 264 265 267 269 271 273 274
266 266 265 264 262 260 260 259 258 257 257 257 256 257 257 256 256 256 255 255 255 256 255 254 255 255 255 256 257 257 257 259 259 259 260 261 263 263 264 266 268 270 272 274
266 266 266 266 264 264 263 261 260 259 259 259 257 256 256 256 256 256 255 254 253 253 253 254 253 253 254 255 256 257 258 259 259 260 261 262 263 263 264 266 268 270 273 275
265 265 265 265 264 264 263 262 262 261 261 261 259 256 254 255 256 256 256 255 254 253 253 253 254 255 255 257 258 258 259 259 259 260 260 261 262 263 265 267 268 270 273 275
264 264 265 265 264 263 263 263 263 262 262 261 259 257 256 255 254 254 255 255 254 253 252 252 254 255 256 257 259 260 260 259 259 260 261 262 263 265 266 267 268 270 273 275
264 264 264 265 265 266 266 266 265 263 262 261 259 257 255 254 253 253 254 253 253 253 253 253 254 254 256 257 259 260 260 260 261 262 263 264 265 265 266 267 269 271 273 276
265 264 264 264 265 266 267 267 266 263 262 261 259 256 254 253 253 255 254 252 252 253 253 253 254 254 256 257 259 260 260 260 262 262 263 265 265 265 265 267 270 272 274 276
267 266 265 265 265 266 268 267 265 263 262 261 258 255 254 253 254 253 252 251 254 255 255 255 254 254 255 257 259 260 260 262 263 263 263 264 265 266 267 269 271 272 275 277
269 268 268 268 267 267 268 268 267 265 263 260 256 252 250 251 253 254 253 252 253 253 254 254 254 254 256 258 258 259 261 262 263 263 264 265 266 267 269 270 272 273 276 278
271 270 269 269 270 269 269 268 268 267 263 259 256 252 251 251 253 254 253 253 253 253 254 254 255 256 257 258 259 260 261 262 263 264 265 265 266 268 269 271 273 274 277 279
270 270 271 270 270 270 271 270 268 266 263 260 258 256 253 252 252 253 254 254 253 253 254 256 256 256 257 258 259 260 261 263 264 266 266 267 268 269 270 273 275 277 280 283
271 271 271 271 271 271 271 270 268 266 265 264 261 258 256 254 253 254 255 254 252 252 253 255 255 255 255 257 259 260 261 263 265 266 266 268 269 271 273 275 277 279 282 284
274 273 273 274 273 270 271 270 268 267 267 268 266 261 257 254 254 255 254 251 250 251 253 254 254 254 255 257 259 261 262 264 265 266 267 269 272 273 274 276 278 280 283 285
276 276 276 276 275 272 270 269 269 268 268 267 264 261 258 254 253 253 252 251 252 253 253 253 254 254 254 255 258 261 263 264 266 267 269 271 272 273 275 277 279 282 284 286
279 279 278 278 277 274 272 271 270 269 267 266 263 261 258 254 253 252 251 251 251 251 252 253 254 254 254 256 258 260 262 264 265 267 269 271 272 274 277 279 282 285 287 288
280 279 277 276 275 273 270 270 269 267 266 265 263 261 258 256 254 252 253 253 253 252 252 252 252 254 255 255 257 259 262 263 266 268 270 272 274 276 279 281 283 286 288 290
280 279 276 274 273 272 271 270 267 266 265 264 263 262 258 256 254 253 254 255 255 254 254 254 254 254 255 256 257 260 261 264 267 270 271 273 275 277 280 282 285 287 289 291
Height
5593 5595 5597 5599 5601 5604 5605 5608 5611 5616 5620 5628 5631 5632 5634 5637 5639 5642 5646 5649 5652 5655 5657 5659 5662 5664 5666 5668 5670 5671 5673 5674 5676 5676 5676 5677 5676 5676 5675 5674 5673 5672 5671 5669
5582 5584 5584 5585 5590 5593 5595 5598 5600 5604 5609 5617 5618 5619 5621 5624 5627 5630 5634 5637 5640 5643 5646 5648 5650 5652 5654 5656 5658 5659 5660 5662 5663 5664 5664 5664 5664 5664 5663 5663 5662 5660 5659 5658
5571 5573 5571 5574 5582 5583 5584 5587 5590 5591 5600 5604 5604 5607 5609 5612 5615 5617 5621 5624 5627 5630 5633 5636 5638 5639 5641 5643 5645 5646 5648 5649 5650 5651 5651 5652 5652 5651 5651 5650 5649 5648 5647 5646
5560 5561 5560 5570 5572 5572 5573 5576 5578 5580 5586 5589 5591 5594 5596 5599 5602 5605 5608 5611 5615 5617 5620 5622 5624 5626 5628 5630 5632 5633 5635 5636 5637 5638 5638 5639 5639 5639 5639 5638 5637 5636 5635 5634
5549 5548 5550 5558 5561 5561 5561 5564 5569 5570 5573 5576 5578 5579 5584 5588 5589 5592 5595 5598 5602 5605 5607 5609 5611 5613 5615 5617 5619 5620 5622 5623 5624 5625 5626 5626 5626 5627 5626 5625 5625 5624 5623 5622
5540 5538 5540 5550 5551 5549 5549 5552 5559 5558 5560 5563 5564 5566 5574 5576 5576 5579 5582 5586 5589 5592 5594 5596 5598 5600 5601 5603 5605 5607 5609 5610 5611 5612 5613 5614 5614 5614 5613 5613 5612 5611 5610 5609
5530 5528 5530 5540 5540 5538 5539 5544 5546 5546 5547 5549 5551 5555 5560 5561 5563 5566 5569 5572 5575 5577 5580 5583 5584 5586 5588 5590 5592 5594 5595 5596 5597 5598 5600 5600 5601 5601 5600 5600 5599 5598 5598 5597
5520 5519 5525 5530 5528 5528 5529 5531 5532 5533 5535 5536 5539 5543 5545 5548 5551 5553 5556 5559 5561 5563 5566 5569 5571 5573 5575 5577 5579 5580 5582 5583 5584 5585 5586 5587 5587 5587 5587 5587 5586 5585 5585 5583
5511 5514 5517 5517 5517 5517 5517 5518 5520 5521 5523 5524 5527 5530 5532 5535 5538 5540 5543 5545 5548 5550 5553 5555 5557 5559 5562 5564 5565 5567 5568 5570 5571 5572 5573 5574 5574 5574 5574 5574 5573 5572 5572 5570
5500 5503 5505 5506 5506 5506 5506 5507 5508 5509 5511 5513 5514 5517 5520 5522 5525 5527 5530 5532 5534 5537 5539 5542 5543 5546 5548 5550 5551 5553 5554 5556 5557 5558 5559 5560 5560 5561 5561 5561 5560 5559 5558 5557
5490 5493 5493 5494 5494 5494 5495 5495 5497 5498 5499 5500 5502 5505 5507 5509 5512 5514 5516 5518 5521 5523 5525 5528 5530 5532 5534 5535 5537 5539 5540 5542 5543 5544 5545 5546 5546 5547 5547 5547 5547 5546 5545 5544
5480 5482 5481 5482 5483 5482 5483 5484 5485 5486 5488 5489 5490 5492 5494 5496 5498 5500 5502 5505 5507 5509 5512 5514 5516 5518 5520 5521 5523 5524 5526 5528 5529 5530 5531 5532 5533 5533 5533 5533 5533 5532 5531 5530
5468 5469 5468 5469 5470 5470 5470 5471 5472 5473 5474 5476 5477 5479 5480 5482 5484 5487 5489 5491 5493 5496 5498 5500 5502 5505 5506 5508 5509 5511 5513 5514 5515 5516 5518 5518 5519 5520 5520 5520 5519 5519 5518 5517
5457 5456 5456 5458 5458 5458 5458 5459 5460 5460 5461 5463 5464 5465 5467 5469 5471 5473 5476 5478 5480 5482 5485 5487 5490 5492 5493 5495 5497 5498 5499 5500 5501 5502 5503 5504 5505 5506 5506 5506 5507 5506 5505 5504
5445 5444 5444 5445 5445 5445 5445 5446 5446 5448 5449 5449 5451 5452 5454 5456 5458 5461 5462 5465 5467 5470 5472 5474 5477 5479 5480 5482 5483 5484 5485 5486 5487 5488 5489 5490 5491 5492 5493 5493 5493 5493 5492 5491
5433 5433 5433 5433 5433 5433 5433 5433 5434 5435 5436 5436 5438 5439 5441 5443 5446 5448 5450 5452 5455 5457 5459 5461 5464 5466 5467 5469 5470 5471 5472 5473 5474 5475 5476 5477 5478 5479 5480 5480 5480 5480 5479 5478
5421 5421 5422 5422 5422 5422 5422 5422 5422 5422 5423 5424 5425 5427 5429 5431 5434 5436 5438 5440 5442 5444 5447 5449 5451 5453 5455 5456 5457 5458 5459 5460 5461 5462 5463 5464 5465 5466 5467 5467 5467 5467 5466 5465
5410 5410 5411 5411 5411 5411 5411 5410 5410 5410 5411 5411 5413 5415 5417 5419 5422 5424 5426 5428 5431 5433 5435 5436 5438 5440 5442 5444 5445 5446 5447 5448 5449 5449 5451 5451 5452 5453 5454 5454 5454 5453 5453 5451
5400 5400 5400 5400 5400 5399 5399 5399 5399 5398 5398 5399 5400 5403 5405 5408 5410 5413 5415 5417 5419 5421 5423 5425 5427 5429 5430 5432 5433 5434 5435 5436 5437 5438 5439 5439 5440 5441 5441 5441 5441 5440 5439 5438
5390 5390 5390 5389 5389 5388 5388 5388 5388 5387 5387 5388 5390 5392 5395 5397 5400 5402 5404 5406 5408 5410 5412 5414 5416 5417 5419 5420 5421 5422 5423 5424 5425 5426 5427 5427 5428 5428 5429 5428 5428 5427 5426 5425
5381 5380 5380 5379 5379 5378 5378 5377 5377 5377 5377 5378 5380 5382 5384 5386 5389 5391 5393 5395 5398 5399 5401 5403 5405 5406 5407 5409 5410 5411 5412 5413 5414 5415 5416 5416 5417 5417 5417 5416 5416 5415 5414 5412
5372 5371 5371 5370 5369 5368 5368 5367 5367 5368 5368 5369 5370 5372 5374 5376 5378 5380 5382 5385 5386 5388 5390 5392 5394 5395 5397 5398 5399 5401 5402 5403 5403 5404 5405 5405 5406 5406 5405 5405 5404 5403 5401 5400
5363 5362 5361 5361 5360 5359 5358 5358 5358 5359 5359 5360 5361 5362 5363 5365 5367 5370 5372 5374 5376 5378 5380 5381 5383 5385 5386 5388 5389 5390 5391 5392 5393 5394 5395 5395 5395 5395 5394 5393 5392 5391 5390 5388
5353 5353 5352 5351 5350 5349 5349 5349 5349 5350 5350 5351 5351 5352 5354 5355 5357 5359 5362 5364 5366 5368 5370 5372 5373 5375 5376 5378 5380 5381 5382 5382 5383 5384 5384 5384 5384 5384 5383 5382 5381 5380 5379 5377
5344 5343 5342 5341 5341 5340 5340 5340 5340 5340 5340 5341 5341 5342 5344 5346 5348 5350 5352 5354 5356 5358 5360 5362 5363 5365 5367 5368 5370 5371 5372 5373 5373 5374 5374 5374 5374 5373 5373 5372 5371 5369 5368 5366
5335 5334 5333 5332 5331 5331 5331 5331 5331 5332 5332 5332 5333 5333 5335 5336 5338 5341 5343 5345 5346 5348 5350 5352 5354 5355 5357 5359 5360 5361 5362 5363 5363 5363 5364 5364 5364 5363 5363 5362 5360 5359 5357 5355
5326 5325 5324 5323 5323 5323 5323 5323 5323 5324 5324 5325 5325 5326 5327 5328 5330 5332 5334 5336 5337 5339 5341 5343 5344 5346 5347 5349 5350 5351 5352 5353 5353 5354 5354 5354 5354 5353 5352 5351 5350 5348 5346 5345